FW5230 Weather Reports


time (UTC)temp
C
wind
direction
speed
KPH
gust
KPH
rain 1hr
cm
rain 24hr
cm
rain mn
cm
humidity
%
barometer
mb
20260504211505 15 282 6.4 16.1 0.00 0.00 0.00 60 1004.8
20260504210004 15 298 8.0 12.9 0.00 0.00 0.00 58 1004.6
20260504204503 15 294 6.4 16.1 0.00 0.03 0.00 60 1004.5
20260504203011 15 313 9.7 20.9 0.00 0.03 0.00 60 1004.4
20260504201503 15 244 6.4 22.5 0.00 0.03 0.00 61 1004.3
20260504200003 16 251 8.0 29.0 0.00 0.03 0.00 60 1004.2
20260504194611 15 300 9.7 24.1 0.00 0.05 0.00 62 1004.1
20260504193058 15 213 9.7 27.4 0.00 0.05 0.00 63 1004.1
20260504191557 14 296 14.5 24.1 0.00 0.05 0.00 65 1004.1
20260504190125 14 244 8.0 20.9 0.00 0.05 0.00 65 1004.4
20260504184558 13 315 8.0 25.7 0.00 0.10 0.00 64 1004.4
20260504183052 13 202 9.7 19.3 0.00 0.10 0.00 66 1004.5
20260504181557 13 232 9.7 20.9 0.00 0.10 0.00 66 1004.7
20260504180142 12 219 4.8 14.5 0.00 0.10 0.00 67 1004.9
20260504174551 12 234 9.7 19.3 0.00 0.18 0.00 65 1005.0
20260504173059 12 278 6.4 17.7 0.00 0.18 0.00 65 1004.9
20260504171549 12 254 3.2 9.7 0.00 0.18 0.00 71 1004.9
20260504081542 1 254 1.6 6.4 0.00 1.02 0.00 82 1006.0
20260504050021 3 264 3.2 9.7 0.00 1.07 0.00 77 1005.1
20260504044518 2 298 3.2 8.0 0.00 1.07 0.00 80 1004.9
20260504043016 3 298 0.0 3.2 0.00 1.07 0.00 77 1004.9
20260504041512 4 254 1.6 6.4 0.00 1.07 0.00 73 1004.8
20260504040010 4 296 3.2 11.3 0.00 1.07 0.00 72 1004.6
20260504034508 4 286 6.4 12.9 0.00 1.07 1.07 71 1004.5
20260504033006 4 304 6.4 12.9 0.00 1.07 1.07 73 1004.4
20260504031505 4 288 6.4 12.9 0.00 1.07 1.07 73 1004.4
20260504030003 4 275 6.4 14.5 0.00 1.07 1.07 73 1004.3
20260504024502 5 250 6.4 11.3 0.00 1.07 1.07 73 1004.1
20260504023100 5 298 4.8 11.3 0.00 1.07 1.07 72 1004.1
20260504021611 5 297 6.4 14.5 0.00 1.07 1.07 71 1003.9
20260504020105 5 247 4.8 12.9 0.00 1.07 1.07 71 1003.8
20260504014556 6 293 8.0 16.1 0.00 1.07 1.07 69 1003.7
20260504013102 6 277 8.0 16.1 0.00 1.07 1.07 69 1003.6
20260504011557 6 271 8.0 17.7 0.00 1.07 1.07 67 1003.4
20260504010058 7 300 6.4 20.9 0.00 1.07 1.07 67 1003.2
20260504004555 7 301 8.0 19.3 0.00 1.07 1.07 67 1002.9
20260504003053 7 324 8.0 17.7 0.00 1.07 1.07 67 1002.7
20260504001607 7 317 9.7 17.7 0.00 1.07 1.07 77 1002.6
20260504000048 7 292 0.0 0.0 0.00 1.07 1.07 91 1002.4
20260503234548 7 292 1.6 6.4 0.00 1.07 1.07 89 1002.2
20260503233047 8 289 3.2 4.8 0.00 1.07 1.07 87 1002.1
20260503231552 8 9 1.6 4.8 0.00 1.07 1.07 84 1001.9
20260503230046 8 5 1.6 6.4 0.00 1.07 1.07 85 1001.8
20260503224550 8 302 1.6 9.7 0.00 1.07 1.07 83 1001.8
20260503223045 8 15 4.8 11.3 0.00 1.07 1.07 83 1001.7
20260503221545 8 309 3.2 6.4 0.00 1.07 1.07 85 1001.6
20260503220041 8 345 4.8 9.7 0.00 1.07 1.07 86 1001.6
20260503214547 8 348 3.2 16.1 0.00 1.07 1.07 88 1001.6
20260503213057 7 355 1.6 19.3 0.00 1.07 1.07 90 1001.7